TimeEST,TemperatureF,Dew PointF,Humidity,Sea Level PressureIn,VisibilityMPH,Wind Direction,Wind SpeedMPH,Gust SpeedMPH,PrecipitationIn,Events,Conditions,WindDirDegrees,DateUTC
12:53 AM,48.9,46.9,93,30.01,6.0,Calm,Calm,-,N/A,,Mostly Cloudy,0,2013-12-02 05:53:00
1:41 AM,51.8,48.2,88,30.00,8.0,Calm,Calm,-,N/A,,Overcast,0,2013-12-02 06:41:00
1:53 AM,51.1,48.0,89,29.99,9.0,Calm,Calm,-,N/A,,Overcast,0,2013-12-02 06:53:00
2:02 AM,51.8,48.2,88,29.99,8.0,Calm,Calm,-,N/A,,Mostly Cloudy,0,2013-12-02 07:02:00
2:53 AM,51.1,48.0,89,29.99,8.0,NW,4.6,-,N/A,,Mostly Cloudy,310,2013-12-02 07:53:00
3:09 AM,51.8,48.2,88,29.99,9.0,NW,3.5,-,N/A,,Overcast,310,2013-12-02 08:09:00
3:53 AM,51.1,48.0,89,29.98,8.0,West,3.5,-,N/A,,Scattered Clouds,280,2013-12-02 08:53:00
4:53 AM,51.1,48.0,89,29.96,7.0,NNW,3.5,-,N/A,,Partly Cloudy,330,2013-12-02 09:53:00
5:18 AM,51.8,48.2,88,29.97,8.0,WNW,4.6,-,N/A,,Mostly Cloudy,290,2013-12-02 10:18:00
5:53 AM,51.1,48.0,89,29.96,8.0,Calm,Calm,-,N/A,,Overcast,0,2013-12-02 10:53:00
6:53 AM,51.1,48.0,89,29.97,7.0,West,3.5,-,N/A,,Mostly Cloudy,260,2013-12-02 11:53:00
7:53 AM,51.1,48.0,89,29.95,6.0,Calm,Calm,-,N/A,,Overcast,0,2013-12-02 12:53:00
8:53 AM,52.0,48.9,89,29.95,6.0,Calm,Calm,-,N/A,,Overcast,0,2013-12-02 13:53:00
9:53 AM,54.0,48.9,83,29.96,9.0,NNW,6.9,-,N/A,,Overcast,330,2013-12-02 14:53:00
10:53 AM,57.9,46.9,67,29.94,10.0,NNW,6.9,-,N/A,,Mostly Cloudy,340,2013-12-02 15:53:00
11:53 AM,63.0,41.0,45,29.90,10.0,NW,9.2,-,N/A,,Scattered Clouds,320,2013-12-02 16:53:00
12:53 PM,66.0,39.0,37,29.87,10.0,NNW,10.4,-,N/A,,Partly Cloudy,330,2013-12-02 17:53:00
1:53 PM,66.9,39.9,37,29.85,10.0,NNW,10.4,-,N/A,,Clear,330,2013-12-02 18:53:00
2:53 PM,66.9,37.0,33,29.84,10.0,NW,9.2,-,N/A,,Partly Cloudy,320,2013-12-02 19:53:00
3:53 PM,64.9,37.9,37,29.85,10.0,NNW,5.8,-,N/A,,Mostly Cloudy,330,2013-12-02 20:53:00
4:53 PM,62.1,39.9,44,29.85,10.0,Calm,Calm,-,N/A,,Mostly Cloudy,0,2013-12-02 21:53:00
5:53 PM,55.9,42.1,60,29.86,10.0,Calm,Calm,-,N/A,,Mostly Cloudy,0,2013-12-02 22:53:00
6:53 PM,54.0,44.1,69,29.87,10.0,Calm,Calm,-,N/A,,Mostly Cloudy,0,2013-12-02 23:53:00
7:53 PM,52.0,44.1,74,29.89,10.0,Calm,Calm,-,N/A,,Mostly Cloudy,0,2013-12-03 00:53:00
8:53 PM,50.0,44.1,80,29.90,10.0,Calm,Calm,-,N/A,,Clear,0,2013-12-03 01:53:00
9:53 PM,50.0,45.0,83,29.91,10.0,Calm,Calm,-,N/A,,Clear,0,2013-12-03 02:53:00
10:53 PM,50.0,46.0,86,29.91,9.0,Calm,Calm,-,N/A,,Clear,0,2013-12-03 03:53:00
11:53 PM,48.9,45.0,86,29.91,8.0,Calm,Calm,-,N/A,,Clear,0,2013-12-03 04:53:00